Location: Błonie
(52.1971°N, 20.6200°E)
Time: 10:58:34
(UTC+02:00)

ISS - Pass Details

Date: 26 January 2019
Orbit: 411 x 421 km, 51.6° (Epoch: 18 October)

Event Time Altitude Azimuth Distance (km) Brightness Sun altitude
Rises 17:41:11 0° 232° (SW) 2,407 1.4 -13.3°
Reaches altitude 10° 17:43:22 10° 224° (SW) 1,545 0.0 -13.6°
Maximum altitude 17:46:38 38° 155° (SSE) 683 -2.8 -14.1°
Enters shadow 17:48:04 25° 105° (ESE) 919 -2.6 -14.3°
